Starlink 31116

operational
NORAD ID: 58947 Int'l Des: 2024-027 Owner: SPXS Country: US Constellation: starlink
LEOCIRCULAR

About Starlink 31116

Description loading...

Live Position

Loading 3D Globe...

Upcoming Passes

Altitude History

Altitude vs Time

uPlot chart will show altitude changes over time

Two-Line Element Set

1 58947U 24027S 25260.64682482 .00009155 00000-0 32088-3 0 9997
2 58947 53.1600 33.4566 0000785 81.7053 278.4037 15.30194443 90836
Epoch: Sep 17, 2025 • Age: 23 hours

Current Status

Altitude 479.9 km
Velocity 7.63 km/s
Sub-Earth Point -16.48°S, 8.88°E
Launch Date Feb 10, 2024
Age 1.6 years
Type internet

Technical Details

Classification Payload
Mass 730.00 kg
Dry Mass 700.00 kg
Total Mass 730.00 kg
Length 0.30 m
Diameter 4.10 m
Span 29.00 m
Shape Box + pan
Manufacturer SPXS
Bus Type Starlink V2M
Phase Status In Orbit
Owner/State SPXS/US

Large Constellations

Loading constellations...